Time,TemperatureF,DewpointF,PressureIn,WindDirection,WindDirectionDegrees,WindSpeedMPH,WindSpeedGustMPH,Humidity,HourlyPrecipIn,Conditions,Clouds,dailyrainin,SoftwareType,DateUTC
2013-11-15 00:01:00,41.6,28.3,30.17,West,270,0.0,3.5,59,0.00,CLR,SKC,0.00,WeatherDisplay:10.37,2013-11-15 05:01:00,
2013-11-15 00:02:00,41.6,28.3,30.17,West,270,0.0,0.0,59,0.00,CLR,SKC,0.00,WeatherDisplay:10.37,2013-11-15 05:02:00,
2013-11-15 00:03:00,41.6,28.3,30.17,West,270,0.0,0.0,59,0.00,CLR,SKC,0.00,WeatherDisplay:10.37,2013-11-15 05:03:00,
2013-11-15 00:08:00,42.6,29.7,30.17,NW,315,1.3,3.0,60,0.00,CLR,SKC,0.00,WeatherDisplay:10.37,2013-11-15 05:08:00,
2013-11-15 00:13:00,43.6,30.6,30.17,WNW,292,2.4,4.6,60,0.00,CLR,SKC,0.00,WeatherDisplay:10.37,2013-11-15 05:13:00,
2013-11-15 00:18:00,43.6,31.0,30.17,NNW,337,1.0,3.5,61,0.00,CLR,SKC,0.00,WeatherDisplay:10.37,2013-11-15 05:18:00,
2013-11-15 00:23:00,43.6,31.0,30.17,NW,315,2.5,5.8,61,0.00,CLR,SKC,0.00,WeatherDisplay:10.37,2013-11-15 05:23:00,
2013-11-15 00:28:00,44.6,32.0,30.17,NNW,337,5.0,5.0,61,0.00,CLR,SKC,0.00,WeatherDisplay:10.37,2013-11-15 05:28:00,
2013-11-15 00:33:00,43.6,31.0,30.17,WNW,292,3.0,3.5,61,0.00,CLR,SKC,0.00,WeatherDisplay:10.37,2013-11-15 05:33:00,
2013-11-15 00:38:00,43.6,31.0,30.17,NNW,337,3.0,8.1,61,0.00,CLR,SKC,0.00,WeatherDisplay:10.37,2013-11-15 05:38:00,
2013-11-15 00:43:00,43.6,31.0,30.17,NW,315,6.0,6.0,61,0.00,CLR,SKC,0.00,WeatherDisplay:10.37,2013-11-15 05:43:00,
2013-11-15 00:48:00,43.6,31.0,30.17,West,270,1.0,5.8,61,0.00,CLR,SKC,0.00,WeatherDisplay:10.37,2013-11-15 05:48:00,
2013-11-15 00:53:00,43.6,31.0,30.17,West,270,1.0,1.2,61,0.00,CLR,SKC,0.00,WeatherDisplay:10.37,2013-11-15 05:53:00,
2013-11-15 00:58:00,43.6,31.4,30.17,WNW,292,0.6,2.0,62,0.00,CLR,SKC,0.00,WeatherDisplay:10.37,2013-11-15 05:58:00,
2013-11-15 01:03:00,42.6,19.4,30.17,NNW,337,0.2,2.3,39,0.00,CLR,SKC,0.00,WeatherDisplay:10.37,2013-11-15 06:03:00,
2013-11-15 01:08:00,42.6,19.4,30.17,NNW,337,0.0,0.0,39,0.00,CLR,SKC,0.00,WeatherDisplay:10.37,2013-11-15 06:08:00,
2013-11-15 01:13:00,42.6,19.4,30.17,NNW,337,0.0,0.0,39,0.00,CLR,SKC,0.00,WeatherDisplay:10.37,2013-11-15 06:13:00,
2013-11-15 01:18:00,42.6,28.0,30.18,NW,315,0.0,0.0,56,0.00,CLR,SKC,0.00,WeatherDisplay:10.37,2013-11-15 06:18:00,
2013-11-15 01:23:00,42.6,29.3,30.18,NNW,337,1.0,1.2,59,0.00,CLR,SKC,0.00,WeatherDisplay:10.37,2013-11-15 06:23:00,
2013-11-15 01:28:00,41.6,28.8,30.18,NNW,337,0.4,2.3,60,0.00,CLR,SKC,0.00,WeatherDisplay:10.37,2013-11-15 06:28:00,
2013-11-15 01:33:00,41.6,28.8,30.18,NW,315,3.0,3.5,60,0.00,CLR,SKC,0.00,WeatherDisplay:10.37,2013-11-15 06:33:00,
2013-11-15 01:38:00,41.6,29.2,30.18,WNW,292,1.2,3.5,61,0.00,CLR,SKC,0.00,WeatherDisplay:10.37,2013-11-15 06:38:00,
2013-11-15 01:43:00,41.6,29.2,30.18,NW,315,0.2,2.3,61,0.00,CLR,SKC,0.00,WeatherDisplay:10.37,2013-11-15 06:43:00,
2013-11-15 01:48:00,41.6,29.2,30.17,NW,315,0.1,0.0,61,0.00,CLR,SKC,0.00,WeatherDisplay:10.37,2013-11-15 06:48:00,
2013-11-15 01:53:00,41.6,29.2,30.17,WNW,292,0.4,2.3,61,0.00,CLR,SKC,0.00,WeatherDisplay:10.37,2013-11-15 06:53:00,
2013-11-15 01:58:00,41.6,29.2,30.18,WNW,292,0.5,3.5,61,0.00,CLR,SKC,0.00,WeatherDisplay:10.37,2013-11-15 06:58:00,
2013-11-15 02:03:00,41.6,29.2,30.18,NW,315,1.1,3.5,61,0.00,CLR,SKC,0.00,WeatherDisplay:10.37,2013-11-15 07:03:00,
2013-11-15 02:08:00,41.6,29.2,30.18,WNW,292,0.0,0.0,61,0.00,CLR,SKC,0.00,WeatherDisplay:10.37,2013-11-15 07:08:00,
2013-11-15 02:13:00,41.6,29.2,30.18,NNW,337,0.0,2.0,61,0.00,CLR,SKC,0.00,WeatherDisplay:10.37,2013-11-15 07:13:00,
2013-11-15 02:18:00,41.6,29.6,30.18,NW,315,1.4,2.3,62,0.00,CLR,SKC,0.00,WeatherDisplay:10.37,2013-11-15 07:18:00,
2013-11-15 02:23:00,41.6,18.5,30.18,NW,315,0.0,0.0,39,0.00,CLR,SKC,0.00,WeatherDisplay:10.37,2013-11-15 07:23:00,
2013-11-15 02:28:00,40.6,21.4,30.18,NW,315,0.0,0.0,46,0.00,CLR,SKC,0.00,WeatherDisplay:10.37,2013-11-15 07:28:00,
2013-11-15 02:33:00,41.6,24.8,30.18,NNW,337,0.0,0.0,51,0.00,CLR,SKC,0.00,WeatherDisplay:10.37,2013-11-15 07:33:00,
2013-11-15 02:38:00,40.6,26.6,30.18,NW,315,0.0,0.0,57,0.00,CLR,SKC,0.00,WeatherDisplay:10.37,2013-11-15 07:38:00,
2013-11-15 02:43:00,40.6,27.4,30.18,NW,315,0.0,0.0,59,0.00,CLR,SKC,0.00,WeatherDisplay:10.37,2013-11-15 07:43:00,
2013-11-15 02:48:00,40.6,27.8,30.18,NW,315,0.0,0.0,60,0.00,CLR,SKC,0.00,WeatherDisplay:10.37,2013-11-15 07:48:00,
2013-11-15 02:53:00,40.6,27.8,30.18,NW,315,0.0,0.0,60,0.00,CLR,SKC,0.00,WeatherDisplay:10.37,2013-11-15 07:53:00,
2013-11-15 02:58:00,40.6,28.2,30.18,NNW,337,0.0,0.0,61,0.00,CLR,SKC,0.00,WeatherDisplay:10.37,2013-11-15 07:58:00,
2013-11-15 03:03:00,40.6,28.2,30.18,NW,315,0.2,2.3,61,0.00,CLR,SKC,0.00,WeatherDisplay:10.37,2013-11-15 08:03:00,
2013-11-15 03:08:00,40.6,28.2,30.18,NW,315,0.0,2.3,61,0.00,CLR,SKC,0.00,WeatherDisplay:10.37,2013-11-15 08:08:00,
2013-11-15 03:13:00,40.6,28.2,30.18,NW,315,0.0,0.0,61,0.00,CLR,SKC,0.00,WeatherDisplay:10.37,2013-11-15 08:13:00,
2013-11-15 03:18:00,39.6,27.3,30.18,WNW,292,0.7,1.2,61,0.00,CLR,SKC,0.00,WeatherDisplay:10.37,2013-11-15 08:18:00,
2013-11-15 03:23:00,39.6,27.3,30.18,NW,315,0.0,1.2,61,0.00,CLR,SKC,0.00,WeatherDisplay:10.37,2013-11-15 08:23:00,
2013-11-15 03:28:00,39.6,27.3,30.18,NW,315,0.0,0.0,61,0.00,CLR,SKC,0.00,WeatherDisplay:10.37,2013-11-15 08:28:00,
2013-11-15 03:33:00,39.6,27.3,30.18,NW,315,0.0,0.0,61,0.00,CLR,SKC,0.00,WeatherDisplay:10.37,2013-11-15 08:33:00,
2013-11-15 03:38:00,39.6,27.3,30.19,NNW,337,0.0,0.0,61,0.00,CLR,SKC,0.00,WeatherDisplay:10.37,2013-11-15 08:38:00,
2013-11-15 03:43:00,39.6,23.0,30.19,NNW,337,0.0,0.0,51,0.00,CLR,SKC,0.00,WeatherDisplay:10.37,2013-11-15 08:43:00,
2013-11-15 03:48:00,39.6,18.4,30.19,West,270,0.0,0.0,42,0.00,CLR,SKC,0.00,WeatherDisplay:10.37,2013-11-15 08:48:00,
2013-11-15 03:53:00,39.6,18.4,30.19,West,270,0.0,0.0,42,0.00,CLR,SKC,0.00,WeatherDisplay:10.37,2013-11-15 08:53:00,
2013-11-15 03:58:00,40.6,25.3,30.19,NNW,337,0.0,0.0,54,0.00,CLR,SKC,0.00,WeatherDisplay:10.37,2013-11-15 08:58:00,
2013-11-15 04:03:00,40.6,27.4,30.19,NNW,337,0.0,3.5,59,0.00,CLR,SKC,0.00,WeatherDisplay:10.37,2013-11-15 09:03:00,
2013-11-15 04:08:00,40.6,27.4,30.19,NNW,337,0.0,0.0,59,0.00,CLR,SKC,0.00,WeatherDisplay:10.37,2013-11-15 09:08:00,
2013-11-15 04:13:00,40.6,27.8,30.19,NE,45,0.0,0.0,60,0.00,CLR,SKC,0.00,WeatherDisplay:10.37,2013-11-15 09:13:00,
2013-11-15 04:18:00,40.6,27.8,30.19,NE,45,0.0,0.0,60,0.00,CLR,SKC,0.00,WeatherDisplay:10.37,2013-11-15 09:18:00,
2013-11-15 04:23:00,39.6,27.3,30.19,NNW,337,0.0,0.0,61,0.00,CLR,SKC,0.00,WeatherDisplay:10.37,2013-11-15 09:23:00,
2013-11-15 04:28:00,38.6,26.3,30.19,NNW,337,0.0,0.0,61,0.00,CLR,SKC,0.00,WeatherDisplay:10.37,2013-11-15 09:28:00,
2013-11-15 04:33:00,38.6,26.3,30.19,West,270,0.0,0.0,61,0.00,CLR,SKC,0.00,WeatherDisplay:10.37,2013-11-15 09:33:00,
2013-11-15 04:38:00,38.6,26.3,30.19,West,270,0.0,0.0,61,0.00,CLR,SKC,0.00,WeatherDisplay:10.37,2013-11-15 09:38:00,
2013-11-15 04:43:00,38.6,26.3,30.19,West,270,0.0,0.0,61,0.00,CLR,SKC,0.00,WeatherDisplay:10.37,2013-11-15 09:43:00,
2013-11-15 04:48:00,40.6,28.2,30.19,NNW,337,0.2,2.3,61,0.00,CLR,SKC,0.00,WeatherDisplay:10.37,2013-11-15 09:48:00,
2013-11-15 04:53:00,40.6,28.2,30.19,NNW,337,1.0,1.2,61,0.00,CLR,SKC,0.00,WeatherDisplay:10.37,2013-11-15 09:53:00,
2013-11-15 04:58:00,40.6,28.2,30.20,NNW,337,2.0,2.3,61,0.00,CLR,SKC,0.00,WeatherDisplay:10.37,2013-11-15 09:58:00,
2013-11-15 05:03:00,40.6,28.2,30.20,NNW,337,0.0,0.0,61,0.00,CLR,SKC,0.00,WeatherDisplay:10.37,2013-11-15 10:03:00,
2013-11-15 05:08:00,39.6,19.5,30.20,WNW,292,0.0,0.0,44,0.00,CLR,SKC,0.00,WeatherDisplay:10.37,2013-11-15 10:08:00,
2013-11-15 05:13:00,38.6,22.0,30.20,NNW,337,0.0,0.0,51,0.00,CLR,SKC,0.00,WeatherDisplay:10.37,2013-11-15 10:13:00,
2013-11-15 05:18:00,38.6,18.0,30.20,WNW,292,0.0,0.0,43,0.00,CLR,SKC,0.00,WeatherDisplay:10.37,2013-11-15 10:18:00,
2013-11-15 05:23:00,38.6,11.3,30.20,NW,315,0.0,0.0,32,0.00,CLR,SKC,0.00,WeatherDisplay:10.37,2013-11-15 10:23:00,
2013-11-15 05:28:00,38.6,9.0,30.21,NNW,337,0.0,3.5,29,0.00,CLR,SKC,0.00,WeatherDisplay:10.37,2013-11-15 10:28:00,
2013-11-15 05:33:00,39.6,16.7,30.21,NW,315,0.1,3.5,39,0.00,CLR,SKC,0.00,WeatherDisplay:10.37,2013-11-15 10:33:00,
2013-11-15 05:38:00,40.6,8.3,30.21,NW,315,0.5,0.0,26,0.00,CLR,SKC,0.00,WeatherDisplay:10.37,2013-11-15 10:38:00,
2013-11-15 05:43:00,40.6,16.3,30.21,NW,315,0.7,3.5,37,0.00,CLR,SKC,0.00,WeatherDisplay:10.37,2013-11-15 10:43:00,
2013-11-15 05:48:00,40.6,12.3,30.21,WNW,292,0.0,1.2,31,0.00,CLR,SKC,0.00,WeatherDisplay:10.37,2013-11-15 10:48:00,
2013-11-15 05:53:00,41.6,13.9,30.21,NNW,337,0.0,3.5,32,0.00,CLR,SKC,0.00,WeatherDisplay:10.37,2013-11-15 10:53:00,
2013-11-15 05:58:00,41.6,18.5,30.22,WNW,292,0.2,3.5,39,0.00,CLR,SKC,0.00,WeatherDisplay:10.37,2013-11-15 10:58:00,
2013-11-15 06:03:00,41.6,10.1,30.22,NNE,22,0.0,1.2,27,0.00,CLR,SKC,0.00,WeatherDisplay:10.37,2013-11-15 11:03:00,
2013-11-15 06:08:00,40.6,16.3,30.23,NNW,337,0.2,2.3,37,0.00,CLR,SKC,0.00,WeatherDisplay:10.37,2013-11-15 11:08:00,
2013-11-15 06:13:00,40.6,10.0,30.23,WNW,292,0.4,1.0,28,0.00,CLR,SKC,0.00,WeatherDisplay:10.37,2013-11-15 11:13:00,
2013-11-15 06:18:00,40.6,15.1,30.23,WNW,292,0.7,3.5,35,0.00,CLR,SKC,0.00,WeatherDisplay:10.37,2013-11-15 11:18:00,
2013-11-15 06:23:00,40.6,13.7,30.23,WNW,292,2.2,3.5,33,0.00,CLR,SKC,0.00,WeatherDisplay:10.37,2013-11-15 11:23:00,
2013-11-15 06:28:00,40.6,17.6,30.23,NNW,337,0.8,3.5,39,0.00,CLR,SKC,0.00,WeatherDisplay:10.37,2013-11-15 11:28:00,
2013-11-15 06:33:00,40.6,21.9,30.23,NNW,337,0.9,1.2,47,0.00,CLR,SKC,0.00,WeatherDisplay:10.37,2013-11-15 11:33:00,
2013-11-15 06:38:00,41.6,15.3,30.23,NW,315,0.0,3.5,34,0.00,CLR,SKC,0.00,WeatherDisplay:10.37,2013-11-15 11:38:00,
2013-11-15 06:43:00,41.6,19.1,30.23,NW,315,0.1,3.5,40,0.00,CLR,SKC,0.00,WeatherDisplay:10.37,2013-11-15 11:43:00,
2013-11-15 06:48:00,42.6,16.2,30.23,WNW,292,3.1,4.6,34,0.00,CLR,SKC,0.00,WeatherDisplay:10.37,2013-11-15 11:48:00,
2013-11-15 06:53:00,42.6,22.2,30.23,West,270,0.0,0.0,44,0.00,CLR,SKC,0.00,WeatherDisplay:10.37,2013-11-15 11:53:00,
2013-11-15 06:58:00,42.6,17.5,30.23,NW,315,2.1,3.5,36,0.00,CLR,SKC,0.00,WeatherDisplay:10.37,2013-11-15 11:58:00,
2013-11-15 07:03:00,43.6,24.2,30.23,WNW,292,0.8,4.6,46,0.00,CLR,SKC,0.00,WeatherDisplay:10.37,2013-11-15 12:03:00,
2013-11-15 07:08:00,43.6,27.1,30.24,WNW,292,0.5,3.5,52,0.00,CLR,SKC,0.00,WeatherDisplay:10.37,2013-11-15 12:08:00,
2013-11-15 07:13:00,43.6,19.6,30.24,NW,315,2.1,5.8,38,0.00,CLR,SKC,0.00,WeatherDisplay:10.37,2013-11-15 12:13:00,
2013-11-15 07:18:00,43.6,17.1,30.24,WNW,292,0.9,2.3,34,0.00,CLR,SKC,0.00,WeatherDisplay:10.37,2013-11-15 12:18:00,
2013-11-15 07:23:00,43.6,24.2,30.24,WNW,292,0.4,2.3,46,0.00,CLR,SKC,0.00,WeatherDisplay:10.37,2013-11-15 12:23:00,
2013-11-15 07:28:00,44.6,27.6,30.24,NW,315,0.4,3.5,51,0.00,CLR,SKC,0.00,WeatherDisplay:10.37,2013-11-15 12:28:00,
2013-11-15 07:33:00,44.6,19.9,30.24,SSW,202,0.0,2.3,37,0.00,CLR,SKC,0.00,WeatherDisplay:10.37,2013-11-15 12:33:00,
2013-11-15 07:38:00,44.6,22.3,30.24,NNW,337,1.2,3.5,41,0.00,CLR,SKC,0.00,WeatherDisplay:10.37,2013-11-15 12:38:00,
2013-11-15 07:43:00,45.6,28.0,30.24,WNW,292,1.2,2.3,50,0.00,CLR,SKC,0.00,WeatherDisplay:10.37,2013-11-15 12:43:00,
2013-11-15 07:48:00,45.6,30.4,30.24,WNW,292,1.3,4.0,55,0.00,CLR,SKC,0.00,WeatherDisplay:10.37,2013-11-15 12:48:00,
2013-11-15 07:53:00,45.6,31.3,30.24,WNW,292,1.4,2.3,57,0.00,CLR,SKC,0.00,WeatherDisplay:10.37,2013-11-15 12:53:00,
2013-11-15 07:58:00,46.6,32.6,30.25,NNW,337,0.0,2.3,58,0.00,CLR,SKC,0.00,WeatherDisplay:10.37,2013-11-15 12:58:00,
2013-11-15 08:03:00,47.6,34.0,30.25,WNW,292,0.0,2.3,59,0.00,CLR,SKC,0.00,WeatherDisplay:10.37,2013-11-15 13:03:00,
2013-11-15 08:08:00,48.6,35.4,30.25,NW,315,1.3,3.5,60,0.00,CLR,SKC,0.00,WeatherDisplay:10.37,2013-11-15 13:08:00,
2013-11-15 08:13:00,48.6,35.4,30.25,SSW,202,1.3,3.5,60,0.00,CLR,SKC,0.00,WeatherDisplay:10.37,2013-11-15 13:13:00,
2013-11-15 08:18:00,49.6,36.3,30.25,NW,315,1.0,5.8,60,0.00,CLR,SKC,0.00,WeatherDisplay:10.37,2013-11-15 13:18:00,
2013-11-15 08:23:00,50.6,37.2,30.25,NNW,337,4.1,6.9,60,0.00,CLR,SKC,0.00,WeatherDisplay:10.37,2013-11-15 13:23:00,
2013-11-15 08:28:00,51.6,38.6,30.25,NNW,337,2.6,3.5,61,0.00,CLR,SKC,0.00,WeatherDisplay:10.37,2013-11-15 13:28:00,
2013-11-15 08:33:00,51.6,38.6,30.25,West,270,0.5,3.5,61,0.00,CLR,SKC,0.00,WeatherDisplay:10.37,2013-11-15 13:33:00,
2013-11-15 08:38:00,50.6,37.7,30.25,NW,315,1.9,5.8,61,0.00,CLR,SKC,0.00,WeatherDisplay:10.37,2013-11-15 13:38:00,
2013-11-15 08:43:00,51.6,39.0,30.25,WNW,292,3.4,6.9,62,0.00,CLR,SKC,0.00,WeatherDisplay:10.37,2013-11-15 13:43:00,
2013-11-15 08:48:00,51.6,38.6,30.24,WNW,292,1.9,4.6,61,0.00,CLR,SKC,0.00,WeatherDisplay:10.37,2013-11-15 13:48:00,
2013-11-15 08:53:00,51.6,37.7,30.24,West,270,0.3,4.6,59,0.00,CLR,SKC,0.00,WeatherDisplay:10.37,2013-11-15 13:53:00,
2013-11-15 08:58:00,51.6,37.3,30.25,WNW,292,2.8,9.2,58,0.00,CLR,SKC,0.00,WeatherDisplay:10.37,2013-11-15 13:58:00,
2013-11-15 09:03:00,51.6,99.9,30.25,NW,315,0.6,8.1,0,0.00,CLR,SKC,0.00,WeatherDisplay:10.37,2013-11-15 14:03:00,
2013-11-15 09:08:00,52.6,99.9,30.24,West,270,2.2,4.0,0,0.00,CLR,SKC,0.00,WeatherDisplay:10.37,2013-11-15 14:08:00,
2013-11-15 09:13:00,52.6,99.9,30.24,West,270,2.3,8.1,0,0.00,CLR,SKC,0.00,WeatherDisplay:10.37,2013-11-15 14:13:00,
2013-11-15 09:18:00,53.6,99.9,30.24,NNW,337,2.6,5.8,0,0.00,CLR,SKC,0.00,WeatherDisplay:10.37,2013-11-15 14:18:00,
2013-11-15 09:23:00,53.6,99.9,30.24,WNW,292,3.0,7.0,0,0.00,CLR,SKC,0.00,WeatherDisplay:10.37,2013-11-15 14:23:00,
2013-11-15 09:28:00,54.6,99.9,30.24,WNW,292,2.1,5.8,0,0.00,CLR,SKC,0.00,WeatherDisplay:10.37,2013-11-15 14:28:00,
2013-11-15 09:33:00,54.6,99.9,30.24,WNW,292,2.0,4.6,0,0.00,CLR,SKC,0.00,WeatherDisplay:10.37,2013-11-15 14:33:00,
2013-11-15 09:38:00,54.6,99.9,30.24,WNW,292,2.7,6.9,0,0.00,CLR,SKC,0.00,WeatherDisplay:10.37,2013-11-15 14:38:00,
2013-11-15 09:43:00,54.6,99.9,30.24,WNW,292,2.2,5.0,0,0.00,CLR,SKC,0.00,WeatherDisplay:10.37,2013-11-15 14:43:00,
2013-11-15 09:48:00,54.6,99.9,30.24,NW,315,2.3,5.8,0,0.00,CLR,SKC,0.00,WeatherDisplay:10.37,2013-11-15 14:48:00,
2013-11-15 09:53:00,55.6,99.9,30.24,WNW,292,2.9,5.8,0,0.00,CLR,SKC,0.00,WeatherDisplay:10.37,2013-11-15 14:53:00,
2013-11-15 09:58:00,55.6,99.9,30.24,NW,315,3.8,4.0,0,0.00,CLR,SKC,0.00,WeatherDisplay:10.37,2013-11-15 14:58:00,
2013-11-15 10:03:00,56.6,99.9,30.24,West,270,3.0,8.1,0,0.00,CLR,SKC,0.00,WeatherDisplay:10.37,2013-11-15 15:03:00,
2013-11-15 10:08:00,56.6,-43.4,30.23,West,270,3.2,5.8,1,0.00,CLR,SKC,0.00,WeatherDisplay:10.37,2013-11-15 15:08:00,
2013-11-15 10:13:00,55.6,-44.0,30.23,NW,315,2.9,3.5,1,0.00,CLR,SKC,0.00,WeatherDisplay:10.37,2013-11-15 15:13:00,
2013-11-15 10:18:00,56.6,-31.2,30.23,WSW,247,2.7,6.9,2,0.00,CLR,SKC,0.00,WeatherDisplay:10.37,2013-11-15 15:18:00,
2013-11-15 10:23:00,56.6,-31.2,30.23,WNW,292,3.5,10.4,2,0.00,CLR,SKC,0.00,WeatherDisplay:10.37,2013-11-15 15:23:00,
2013-11-15 10:28:00,56.6,-31.2,30.23,West,270,2.7,8.0,2,0.00,CLR,SKC,0.00,WeatherDisplay:10.37,2013-11-15 15:28:00,
2013-11-15 10:33:00,57.6,-23.0,30.23,NW,315,1.6,6.9,3,0.00,CLR,SKC,0.00,WeatherDisplay:10.37,2013-11-15 15:33:00,
2013-11-15 10:38:00,57.6,-23.0,30.23,NW,315,6.2,10.4,3,0.00,CLR,SKC,0.00,WeatherDisplay:10.37,2013-11-15 15:38:00,
2013-11-15 10:43:00,58.6,-22.3,30.23,SSW,202,3.0,9.2,3,0.00,CLR,SKC,0.00,WeatherDisplay:10.37,2013-11-15 15:43:00,
2013-11-15 10:48:00,58.6,-16.7,30.23,West,270,5.9,10.4,4,0.00,CLR,SKC,0.00,WeatherDisplay:10.37,2013-11-15 15:48:00,
2013-11-15 10:53:00,58.6,-16.7,30.23,NNW,337,3.2,9.2,4,0.00,CLR,SKC,0.00,WeatherDisplay:10.37,2013-11-15 15:53:00,
2013-11-15 10:58:00,58.6,-12.3,30.23,WNW,292,3.5,7.0,5,0.00,CLR,SKC,0.00,WeatherDisplay:10.37,2013-11-15 15:58:00,
2013-11-15 11:03:00,58.6,-12.3,30.23,NW,315,4.1,8.1,5,0.00,CLR,SKC,0.00,WeatherDisplay:10.37,2013-11-15 16:03:00,
2013-11-15 11:08:00,58.6,-12.3,30.23,WNW,292,3.9,6.9,5,0.00,CLR,SKC,0.00,WeatherDisplay:10.37,2013-11-15 16:08:00,
2013-11-15 11:13:00,58.6,-12.3,30.23,WNW,292,3.5,8.1,5,0.00,CLR,SKC,0.00,WeatherDisplay:10.37,2013-11-15 16:13:00,
2013-11-15 11:18:00,58.6,-8.6,30.23,NW,315,3.3,10.4,6,0.00,CLR,SKC,0.00,WeatherDisplay:10.37,2013-11-15 16:18:00,
2013-11-15 11:23:00,58.6,-8.6,30.23,NW,315,2.8,10.4,6,0.00,CLR,SKC,0.00,WeatherDisplay:10.37,2013-11-15 16:23:00,
2013-11-15 11:28:00,57.6,-9.4,30.23,NW,315,4.9,10.4,6,0.00,CLR,SKC,0.00,WeatherDisplay:10.37,2013-11-15 16:28:00,
2013-11-15 11:33:00,57.6,-9.4,30.23,NW,315,4.2,9.2,6,0.00,CLR,SKC,0.00,WeatherDisplay:10.37,2013-11-15 16:33:00,
2013-11-15 11:38:00,57.6,-9.4,30.22,WNW,292,7.0,10.4,6,0.00,CLR,SKC,0.00,WeatherDisplay:10.37,2013-11-15 16:38:00,
2013-11-15 11:43:00,57.6,-6.2,30.22,NW,315,4.0,11.5,7,0.00,CLR,SKC,0.00,WeatherDisplay:10.37,2013-11-15 16:43:00,
2013-11-15 11:48:00,57.6,-6.2,30.21,NW,315,2.3,6.0,7,0.00,CLR,SKC,0.00,WeatherDisplay:10.37,2013-11-15 16:48:00,
2013-11-15 11:53:00,57.6,-6.2,30.21,WNW,292,4.1,4.1,7,0.00,CLR,SKC,0.00,WeatherDisplay:10.37,2013-11-15 16:53:00,
2013-11-15 11:58:00,58.6,-5.4,30.21,West,270,3.9,8.1,7,0.00,CLR,SKC,0.00,WeatherDisplay:10.37,2013-11-15 16:58:00,
2013-11-15 12:03:00,58.6,-5.4,30.21,NW,315,3.0,10.4,7,0.00,CLR,SKC,0.00,WeatherDisplay:10.37,2013-11-15 17:03:00,
2013-11-15 12:08:00,58.6,-5.4,30.21,West,270,3.9,8.1,7,0.00,CLR,SKC,0.00,WeatherDisplay:10.37,2013-11-15 17:08:00,
2013-11-15 12:13:00,58.6,-2.7,30.21,WSW,247,4.2,8.1,8,0.00,CLR,SKC,0.00,WeatherDisplay:10.37,2013-11-15 17:13:00,
2013-11-15 12:18:00,58.6,-2.7,30.20,West,270,4.8,8.1,8,0.00,CLR,SKC,0.00,WeatherDisplay:10.37,2013-11-15 17:18:00,
2013-11-15 12:23:00,58.6,-2.7,30.20,NW,315,2.5,5.8,8,0.00,CLR,SKC,0.00,WeatherDisplay:10.37,2013-11-15 17:23:00,
2013-11-15 12:28:00,58.6,-2.7,30.20,WNW,292,3.0,6.9,8,0.00,CLR,SKC,0.00,WeatherDisplay:10.37,2013-11-15 17:28:00,
2013-11-15 12:33:00,58.6,-2.7,30.20,WNW,292,2.3,8.1,8,0.00,CLR,SKC,0.00,WeatherDisplay:10.37,2013-11-15 17:33:00,
2013-11-15 12:38:00,58.6,-2.7,30.20,WNW,292,3.9,5.8,8,0.00,CLR,SKC,0.00,WeatherDisplay:10.37,2013-11-15 17:38:00,
2013-11-15 12:43:00,58.6,-2.7,30.20,West,270,3.2,7.0,8,0.00,CLR,SKC,0.00,WeatherDisplay:10.37,2013-11-15 17:43:00,
2013-11-15 12:48:00,58.6,-2.7,30.21,WSW,247,2.3,10.4,8,0.00,CLR,SKC,0.00,WeatherDisplay:10.37,2013-11-15 17:48:00,
2013-11-15 12:53:00,58.6,-0.2,30.21,WNW,292,3.4,5.8,9,0.00,CLR,SKC,0.00,WeatherDisplay:10.37,2013-11-15 17:53:00,
2013-11-15 12:58:00,58.6,-0.2,30.21,WNW,292,3.6,10.4,9,0.00,CLR,SKC,0.00,WeatherDisplay:10.37,2013-11-15 17:58:00,
2013-11-15 13:03:00,58.6,-0.2,30.21,WSW,247,2.9,5.8,9,0.00,CLR,SKC,0.00,WeatherDisplay:10.37,2013-11-15 18:03:00,
2013-11-15 13:08:00,59.6,0.6,30.21,West,270,3.2,8.0,9,0.00,CLR,SKC,0.00,WeatherDisplay:10.37,2013-11-15 18:08:00,
2013-11-15 13:13:00,59.6,0.6,30.21,NW,315,0.3,6.9,9,0.00,CLR,SKC,0.00,WeatherDisplay:10.37,2013-11-15 18:13:00,
2013-11-15 13:18:00,58.6,-0.2,30.20,West,270,3.1,4.6,9,0.00,CLR,SKC,0.00,WeatherDisplay:10.37,2013-11-15 18:18:00,
2013-11-15 13:23:00,59.6,0.6,30.20,NW,315,2.9,9.2,9,0.00,CLR,SKC,0.00,WeatherDisplay:10.37,2013-11-15 18:23:00,
2013-11-15 13:28:00,59.6,2.9,30.20,WNW,292,2.4,10.4,10,0.00,CLR,SKC,0.00,WeatherDisplay:10.37,2013-11-15 18:28:00,
2013-11-15 13:33:00,59.6,2.9,30.20,WSW,247,6.4,15.0,10,0.00,CLR,SKC,0.00,WeatherDisplay:10.37,2013-11-15 18:33:00,
2013-11-15 13:38:00,59.6,2.9,30.19,West,270,5.1,11.5,10,0.00,CLR,SKC,0.00,WeatherDisplay:10.37,2013-11-15 18:38:00,
2013-11-15 13:43:00,58.6,2.1,30.19,West,270,5.0,11.5,10,0.00,CLR,SKC,0.00,WeatherDisplay:10.37,2013-11-15 18:43:00,
2013-11-15 13:48:00,58.6,2.1,30.19,WNW,292,6.4,10.4,10,0.00,CLR,SKC,0.00,WeatherDisplay:10.37,2013-11-15 18:48:00,
2013-11-15 13:53:00,58.6,2.1,30.19,West,270,4.2,4.2,10,0.00,CLR,SKC,0.00,WeatherDisplay:10.37,2013-11-15 18:53:00,
2013-11-15 13:58:00,58.6,2.1,30.19,WNW,292,3.4,7.0,10,0.00,CLR,SKC,0.00,WeatherDisplay:10.37,2013-11-15 18:58:00,
2013-11-15 14:03:00,58.6,2.1,30.19,WSW,247,5.5,7.0,10,0.00,CLR,SKC,0.00,WeatherDisplay:10.37,2013-11-15 19:03:00,
2013-11-15 14:08:00,57.6,1.3,30.19,NW,315,2.4,7.0,10,0.00,CLR,SKC,0.00,WeatherDisplay:10.37,2013-11-15 19:08:00,
2013-11-15 14:13:00,57.6,1.3,30.19,WNW,292,3.0,10.4,10,0.00,CLR,SKC,0.00,WeatherDisplay:10.37,2013-11-15 19:13:00,
2013-11-15 14:18:00,57.6,1.3,30.19,WSW,247,5.1,8.1,10,0.00,CLR,SKC,0.00,WeatherDisplay:10.37,2013-11-15 19:18:00,
2013-11-15 14:23:00,57.6,1.3,30.19,NW,315,4.3,4.6,10,0.00,CLR,SKC,0.00,WeatherDisplay:10.37,2013-11-15 19:23:00,
2013-11-15 14:28:00,56.6,0.6,30.19,NNW,337,3.3,8.0,10,0.00,CLR,SKC,0.00,WeatherDisplay:10.37,2013-11-15 19:28:00,
2013-11-15 14:33:00,56.6,0.6,30.19,NW,315,5.3,10.4,10,0.00,CLR,SKC,0.00,WeatherDisplay:10.37,2013-11-15 19:33:00,
2013-11-15 14:38:00,57.6,1.3,30.19,WNW,292,4.4,6.9,10,0.00,CLR,SKC,0.00,WeatherDisplay:10.37,2013-11-15 19:38:00,
2013-11-15 14:43:00,57.6,1.3,30.19,West,270,3.5,6.9,10,0.00,CLR,SKC,0.00,WeatherDisplay:10.37,2013-11-15 19:43:00,
2013-11-15 14:48:00,57.6,3.4,30.19,WNW,292,3.5,9.2,11,0.00,CLR,SKC,0.00,WeatherDisplay:10.37,2013-11-15 19:48:00,
2013-11-15 14:53:00,57.6,3.4,30.19,WNW,292,5.2,8.1,11,0.00,CLR,SKC,0.00,WeatherDisplay:10.37,2013-11-15 19:53:00,
2013-11-15 14:58:00,57.6,3.4,30.20,West,270,4.3,8.1,11,0.00,CLR,SKC,0.00,WeatherDisplay:10.37,2013-11-15 19:58:00,
2013-11-15 15:03:00,56.6,2.6,30.20,SW,225,0.9,3.5,11,0.00,CLR,SKC,0.00,WeatherDisplay:10.37,2013-11-15 20:03:00,
2013-11-15 15:08:00,56.6,2.6,30.20,West,270,2.9,10.4,11,0.00,CLR,SKC,0.00,WeatherDisplay:10.37,2013-11-15 20:08:00,
2013-11-15 15:13:00,56.6,2.6,30.20,WNW,292,3.3,8.1,11,0.00,CLR,SKC,0.00,WeatherDisplay:10.37,2013-11-15 20:13:00,
2013-11-15 15:18:00,56.6,2.6,30.20,WSW,247,7.8,9.2,11,0.00,CLR,SKC,0.00,WeatherDisplay:10.37,2013-11-15 20:18:00,
2013-11-15 15:23:00,55.6,1.8,30.20,NW,315,1.4,4.6,11,0.00,CLR,SKC,0.00,WeatherDisplay:10.37,2013-11-15 20:23:00,
2013-11-15 15:28:00,55.6,1.8,30.19,NNW,337,1.4,6.0,11,0.00,CLR,SKC,0.00,WeatherDisplay:10.37,2013-11-15 20:28:00,
2013-11-15 15:33:00,55.6,1.8,30.19,NNW,337,4.1,8.1,11,0.00,CLR,SKC,0.00,WeatherDisplay:10.37,2013-11-15 20:33:00,
2013-11-15 15:38:00,54.6,1.0,30.20,West,270,4.2,10.4,11,0.00,CLR,SKC,0.00,WeatherDisplay:10.37,2013-11-15 20:38:00,
2013-11-15 15:43:00,54.6,1.0,30.20,NNW,337,5.7,10.4,11,0.00,CLR,SKC,0.00,WeatherDisplay:10.37,2013-11-15 20:43:00,
2013-11-15 15:48:00,54.6,2.9,30.20,WNW,292,7.1,7.1,12,0.00,CLR,SKC,0.00,WeatherDisplay:10.37,2013-11-15 20:48:00,
2013-11-15 15:53:00,54.6,2.9,30.20,WNW,292,5.0,6.9,12,0.00,CLR,SKC,0.00,WeatherDisplay:10.37,2013-11-15 20:53:00,
2013-11-15 15:58:00,54.6,2.9,30.21,West,270,6.6,10.4,12,0.00,CLR,SKC,0.00,WeatherDisplay:10.37,2013-11-15 20:58:00,
2013-11-15 16:03:00,54.6,2.9,30.21,NW,315,4.4,8.1,12,0.00,CLR,SKC,0.00,WeatherDisplay:10.37,2013-11-15 21:03:00,
2013-11-15 16:08:00,53.6,2.1,30.21,WNW,292,2.1,3.5,12,0.00,CLR,SKC,0.00,WeatherDisplay:10.37,2013-11-15 21:08:00,
2013-11-15 16:13:00,53.6,2.1,30.21,NNW,337,4.5,10.4,12,0.00,CLR,SKC,0.00,WeatherDisplay:10.37,2013-11-15 21:13:00,
2013-11-15 16:18:00,53.6,2.1,30.21,WSW,247,4.8,5.8,12,0.00,CLR,SKC,0.00,WeatherDisplay:10.37,2013-11-15 21:18:00,
2013-11-15 16:23:00,53.6,2.1,30.21,NW,315,2.4,9.2,12,0.00,CLR,SKC,0.00,WeatherDisplay:10.37,2013-11-15 21:23:00,
2013-11-15 16:28:00,53.6,2.1,30.21,West,270,1.5,11.5,12,0.00,CLR,SKC,0.00,WeatherDisplay:10.37,2013-11-15 21:28:00,
2013-11-15 16:33:00,53.6,2.1,30.21,WNW,292,1.4,6.0,12,0.00,CLR,SKC,0.00,WeatherDisplay:10.37,2013-11-15 21:33:00,
2013-11-15 16:38:00,53.6,2.1,30.20,West,270,4.2,9.2,12,0.00,CLR,SKC,0.00,WeatherDisplay:10.37,2013-11-15 21:38:00,
2013-11-15 16:43:00,53.6,2.1,30.20,NNW,337,4.1,6.9,12,0.00,CLR,SKC,0.00,WeatherDisplay:10.37,2013-11-15 21:43:00,
2013-11-15 16:48:00,53.6,2.1,30.20,NNW,337,3.8,9.2,12,0.00,CLR,SKC,0.00,WeatherDisplay:10.37,2013-11-15 21:48:00,
2013-11-15 16:53:00,53.6,2.1,30.20,WSW,247,6.7,8.1,12,0.00,CLR,SKC,0.00,WeatherDisplay:10.37,2013-11-15 21:53:00,
2013-11-15 16:58:00,53.6,2.1,30.20,West,270,2.5,6.9,12,0.00,CLR,SKC,0.00,WeatherDisplay:10.37,2013-11-15 21:58:00,
2013-11-15 17:03:00,53.6,2.1,30.20,WNW,292,3.3,6.9,12,0.00,CLR,SKC,0.00,WeatherDisplay:10.37,2013-11-15 22:03:00,
2013-11-15 17:08:00,53.6,2.1,30.20,WSW,247,3.0,5.8,12,0.00,CLR,SKC,0.00,WeatherDisplay:10.37,2013-11-15 22:08:00,
2013-11-15 17:13:00,53.6,2.1,30.20,WSW,247,6.1,9.2,12,0.00,CLR,SKC,0.00,WeatherDisplay:10.37,2013-11-15 22:13:00,
2013-11-15 17:18:00,53.6,2.1,30.20,WSW,247,3.3,10.4,12,0.00,CLR,SKC,0.00,WeatherDisplay:10.37,2013-11-15 22:18:00,
2013-11-15 17:23:00,53.6,2.1,30.20,WNW,292,4.7,8.1,12,0.00,CLR,SKC,0.00,WeatherDisplay:10.37,2013-11-15 22:23:00,
2013-11-15 17:28:00,53.6,2.1,30.21,WSW,247,2.6,5.8,12,0.00,CLR,SKC,0.00,WeatherDisplay:10.37,2013-11-15 22:28:00,
2013-11-15 17:33:00,53.6,2.1,30.21,WNW,292,4.1,6.9,12,0.00,CLR,SKC,0.00,WeatherDisplay:10.37,2013-11-15 22:33:00,
2013-11-15 17:38:00,53.6,2.1,30.21,West,270,3.7,10.4,12,0.00,CLR,SKC,0.00,WeatherDisplay:10.37,2013-11-15 22:38:00,
2013-11-15 17:43:00,52.6,1.3,30.21,NNW,337,1.3,6.0,12,0.00,CLR,SKC,0.00,WeatherDisplay:10.37,2013-11-15 22:43:00,
2013-11-15 17:48:00,52.6,1.3,30.21,WNW,292,3.8,6.9,12,0.00,CLR,SKC,0.00,WeatherDisplay:10.37,2013-11-15 22:48:00,
2013-11-15 17:53:00,53.6,2.1,30.21,WNW,292,4.5,11.5,12,0.00,CLR,SKC,0.00,WeatherDisplay:10.37,2013-11-15 22:53:00,
2013-11-15 17:58:00,53.6,2.1,30.21,WNW,292,2.9,6.9,12,0.00,CLR,SKC,0.00,WeatherDisplay:10.37,2013-11-15 22:58:00,
2013-11-15 18:03:00,52.6,1.3,30.21,WNW,292,2.7,8.1,12,0.00,CLR,SKC,0.00,WeatherDisplay:10.37,2013-11-15 23:03:00,
2013-11-15 18:08:00,52.6,3.1,30.21,West,270,2.4,10.4,13,0.00,CLR,SKC,0.00,WeatherDisplay:10.37,2013-11-15 23:08:00,
2013-11-15 18:13:00,52.6,3.1,30.21,WSW,247,4.3,6.9,13,0.00,CLR,SKC,0.00,WeatherDisplay:10.37,2013-11-15 23:13:00,
2013-11-15 18:18:00,52.6,3.1,30.21,WNW,292,2.9,8.1,13,0.00,CLR,SKC,0.00,WeatherDisplay:10.37,2013-11-15 23:18:00,
2013-11-15 18:24:00,52.6,3.1,30.21,North,360,5.8,5.8,13,0.00,CLR,SKC,0.00,WeatherDisplay:10.37,2013-11-15 23:24:00,
2013-11-15 18:29:00,52.6,3.1,30.21,WNW,292,3.4,5.8,13,0.00,CLR,SKC,0.00,WeatherDisplay:10.37,2013-11-15 23:29:00,
2013-11-15 18:34:00,52.6,3.1,30.21,WNW,292,2.4,6.9,13,0.00,CLR,SKC,0.00,WeatherDisplay:10.37,2013-11-15 23:34:00,
2013-11-15 18:39:00,52.6,3.1,30.21,WNW,292,3.5,9.2,13,0.00,CLR,SKC,0.00,WeatherDisplay:10.37,2013-11-15 23:39:00,
2013-11-15 18:44:00,52.6,3.1,30.21,WSW,247,3.7,4.6,13,0.00,CLR,SKC,0.00,WeatherDisplay:10.37,2013-11-15 23:44:00,
2013-11-15 18:49:00,52.6,3.1,30.21,NNW,337,2.8,6.0,13,0.00,CLR,SKC,0.00,WeatherDisplay:10.37,2013-11-15 23:49:00,
2013-11-15 18:54:00,52.6,3.1,30.21,WSW,247,5.1,5.8,13,0.00,CLR,SKC,0.00,WeatherDisplay:10.37,2013-11-15 23:54:00,
2013-11-15 18:59:00,52.6,3.1,30.20,WNW,292,4.3,10.4,13,0.00,CLR,SKC,0.00,WeatherDisplay:10.37,2013-11-15 23:59:00,
2013-11-15 19:04:00,52.6,3.1,30.20,WSW,247,5.1,8.1,13,0.00,CLR,SKC,0.00,WeatherDisplay:10.37,2013-11-16 00:04:00,
2013-11-15 19:09:00,52.6,3.1,30.21,WSW,247,3.6,10.4,13,0.00,CLR,SKC,0.00,WeatherDisplay:10.37,2013-11-16 00:09:00,
2013-11-15 19:14:00,52.6,3.1,30.21,West,270,1.8,5.8,13,0.00,CLR,SKC,0.00,WeatherDisplay:10.37,2013-11-16 00:14:00,
2013-11-15 19:19:00,52.6,3.1,30.20,NW,315,2.0,4.6,13,0.00,CLR,SKC,0.00,WeatherDisplay:10.37,2013-11-16 00:19:00,
2013-11-15 19:24:00,52.6,3.1,30.20,WSW,247,2.7,9.2,13,0.00,CLR,SKC,0.00,WeatherDisplay:10.37,2013-11-16 00:24:00,
2013-11-15 19:29:00,52.6,3.1,30.21,NNW,337,4.4,6.9,13,0.00,CLR,SKC,0.00,WeatherDisplay:10.37,2013-11-16 00:29:00,
2013-11-15 19:34:00,52.6,3.1,30.21,WSW,247,1.7,7.0,13,0.00,CLR,SKC,0.00,WeatherDisplay:10.37,2013-11-16 00:34:00,
2013-11-15 19:39:00,52.6,3.1,30.21,WNW,292,4.5,8.1,13,0.00,CLR,SKC,0.00,WeatherDisplay:10.37,2013-11-16 00:39:00,
2013-11-15 19:44:00,52.6,3.1,30.21,WNW,292,2.3,5.8,13,0.00,CLR,SKC,0.00,WeatherDisplay:10.37,2013-11-16 00:44:00,
2013-11-15 19:49:00,51.6,2.3,30.21,West,270,1.3,6.9,13,0.00,CLR,SKC,0.00,WeatherDisplay:10.37,2013-11-16 00:49:00,
2013-11-15 19:54:00,51.6,2.3,30.21,West,270,1.3,6.9,13,0.00,CLR,SKC,0.00,WeatherDisplay:10.37,2013-11-16 00:54:00,
2013-11-15 19:59:00,51.6,2.3,30.21,WNW,292,3.2,8.1,13,0.00,CLR,SKC,0.00,WeatherDisplay:10.37,2013-11-16 00:59:00,
2013-11-15 20:04:00,51.6,2.3,30.21,WNW,292,2.1,5.8,13,0.00,CLR,SKC,0.00,WeatherDisplay:10.37,2013-11-16 01:04:00,
2013-11-15 20:09:00,51.6,2.3,30.21,NNW,337,2.5,9.2,13,0.00,CLR,SKC,0.00,WeatherDisplay:10.37,2013-11-16 01:09:00,
2013-11-15 20:14:00,51.6,2.3,30.21,WNW,292,4.6,10.4,13,0.00,CLR,SKC,0.00,WeatherDisplay:10.37,2013-11-16 01:14:00,
2013-11-15 20:19:00,51.6,2.3,30.21,West,270,2.4,6.9,13,0.00,CLR,SKC,0.00,WeatherDisplay:10.37,2013-11-16 01:19:00,
2013-11-15 20:24:00,51.6,2.3,30.21,WNW,292,4.2,10.4,13,0.00,CLR,SKC,0.00,WeatherDisplay:10.37,2013-11-16 01:24:00,
2013-11-15 20:29:00,51.6,2.3,30.21,NW,315,0.3,2.0,13,0.00,CLR,SKC,0.00,WeatherDisplay:10.37,2013-11-16 01:29:00,
2013-11-15 20:34:00,51.6,2.3,30.21,NW,315,1.4,4.6,13,0.00,CLR,SKC,0.00,WeatherDisplay:10.37,2013-11-16 01:34:00,
2013-11-15 20:39:00,51.6,2.3,30.21,West,270,1.8,6.9,13,0.00,CLR,SKC,0.00,WeatherDisplay:10.37,2013-11-16 01:39:00,
2013-11-15 20:44:00,51.6,2.3,30.21,NW,315,3.9,9.2,13,0.00,CLR,SKC,0.00,WeatherDisplay:10.37,2013-11-16 01:44:00,
2013-11-15 20:49:00,51.6,2.3,30.21,West,270,2.2,6.0,13,0.00,CLR,SKC,0.00,WeatherDisplay:10.37,2013-11-16 01:49:00,
2013-11-15 20:54:00,51.6,2.3,30.21,WNW,292,2.8,4.6,13,0.00,CLR,SKC,0.00,WeatherDisplay:10.37,2013-11-16 01:54:00,
2013-11-15 20:59:00,51.6,2.3,30.21,WNW,292,4.0,6.9,13,0.00,CLR,SKC,0.00,WeatherDisplay:10.37,2013-11-16 01:59:00,
2013-11-15 21:04:00,51.6,2.3,30.21,NW,315,1.5,3.5,13,0.00,CLR,SKC,0.00,WeatherDisplay:10.37,2013-11-16 02:04:00,
2013-11-15 21:09:00,50.6,1.5,30.21,NW,315,2.8,6.9,13,0.00,CLR,SKC,0.00,WeatherDisplay:10.37,2013-11-16 02:09:00,
2013-11-15 21:14:00,50.6,3.1,30.21,NNW,337,1.2,4.6,14,0.00,CLR,SKC,0.00,WeatherDisplay:10.37,2013-11-16 02:14:00,
2013-11-15 21:19:00,49.6,2.3,30.21,WNW,292,0.1,1.2,14,0.00,CLR,SKC,0.00,WeatherDisplay:10.37,2013-11-16 02:19:00,
2013-11-15 21:24:00,49.6,2.3,30.21,NNW,337,1.0,3.5,14,0.00,CLR,SKC,0.00,WeatherDisplay:10.37,2013-11-16 02:24:00,
2013-11-15 21:29:00,49.6,2.3,30.22,NNW,337,0.0,0.0,14,0.00,CLR,SKC,0.00,WeatherDisplay:10.37,2013-11-16 02:29:00,
2013-11-15 21:34:00,48.6,1.5,30.22,NW,315,0.0,0.0,14,0.00,CLR,SKC,0.00,WeatherDisplay:10.37,2013-11-16 02:34:00,
2013-11-15 21:40:00,48.6,1.5,30.22,North,360,0.0,0.0,14,0.00,CLR,SKC,0.00,WeatherDisplay:10.37,2013-11-16 02:40:00,
2013-11-15 21:45:00,47.6,0.7,30.22,NW,315,0.0,0.0,14,0.00,CLR,SKC,0.00,WeatherDisplay:10.37,2013-11-16 02:45:00,
2013-11-15 21:50:00,47.6,0.7,30.22,NW,315,0.0,0.0,14,0.00,CLR,SKC,0.00,WeatherDisplay:10.37,2013-11-16 02:50:00,
2013-11-15 21:55:00,47.6,0.7,30.23,WNW,292,0.3,0.0,14,0.00,CLR,SKC,0.00,WeatherDisplay:10.37,2013-11-16 02:55:00,
2013-11-15 22:00:00,47.6,0.7,30.23,WNW,292,0.3,0.0,14,0.00,CLR,SKC,0.00,WeatherDisplay:10.37,2013-11-16 03:00:00,
2013-11-15 22:05:00,47.6,0.7,30.22,WNW,292,0.3,0.0,14,0.00,CLR,SKC,0.00,WeatherDisplay:10.37,2013-11-16 03:05:00,
2013-11-15 22:10:00,47.6,0.7,30.22,WNW,292,0.3,2.3,14,0.00,CLR,SKC,0.00,WeatherDisplay:10.37,2013-11-16 03:10:00,
2013-11-15 22:15:00,47.6,0.7,30.23,WNW,292,0.0,0.0,14,0.00,CLR,SKC,0.00,WeatherDisplay:10.37,2013-11-16 03:15:00,
2013-11-15 22:20:00,47.6,0.7,30.23,WNW,292,0.0,0.0,14,0.00,CLR,SKC,0.00,WeatherDisplay:10.37,2013-11-16 03:20:00,
2013-11-15 22:25:00,46.6,-0.1,30.23,NW,315,0.0,1.2,14,0.00,CLR,SKC,0.00,WeatherDisplay:10.37,2013-11-16 03:25:00,
2013-11-15 22:31:00,46.6,-0.1,30.23,NNW,337,0.0,0.0,14,0.00,CLR,SKC,0.00,WeatherDisplay:10.37,2013-11-16 03:31:00,
2013-11-15 22:36:00,47.6,0.7,30.23,NW,315,0.6,3.5,14,0.00,CLR,SKC,0.00,WeatherDisplay:10.37,2013-11-16 03:36:00,
2013-11-15 22:41:00,47.6,0.7,30.23,WNW,292,1.0,3.5,14,0.00,CLR,SKC,0.00,WeatherDisplay:10.37,2013-11-16 03:41:00,
2013-11-15 22:46:00,47.6,0.7,30.23,NW,315,0.4,2.3,14,0.00,CLR,SKC,0.00,WeatherDisplay:10.37,2013-11-16 03:46:00,
2013-11-15 22:51:00,47.6,0.7,30.23,NNW,337,0.3,3.5,14,0.00,CLR,SKC,0.00,WeatherDisplay:10.37,2013-11-16 03:51:00,
2013-11-15 22:56:00,47.6,0.7,30.23,NW,315,0.0,0.0,14,0.00,CLR,SKC,0.00,WeatherDisplay:10.37,2013-11-16 03:56:00,
2013-11-15 23:01:00,46.6,-0.1,30.23,NW,315,0.0,0.0,14,0.00,CLR,SKC,0.00,WeatherDisplay:10.37,2013-11-16 04:01:00,
2013-11-15 23:06:00,46.6,-0.1,30.23,NNW,337,0.0,0.0,14,0.00,CLR,SKC,0.00,WeatherDisplay:10.37,2013-11-16 04:06:00,
2013-11-15 23:11:00,46.6,-0.1,30.23,NNW,337,0.2,1.2,14,0.00,CLR,SKC,0.00,WeatherDisplay:10.37,2013-11-16 04:11:00,
2013-11-15 23:16:00,47.6,0.7,30.23,NW,315,0.2,2.3,14,0.00,CLR,SKC,0.00,WeatherDisplay:10.37,2013-11-16 04:16:00,
2013-11-15 23:21:00,46.6,1.3,30.23,NW,315,0.1,1.0,15,0.00,CLR,SKC,0.00,WeatherDisplay:10.37,2013-11-16 04:21:00,
2013-11-15 23:26:00,47.6,2.1,30.23,NNW,337,0.0,0.0,15,0.00,CLR,SKC,0.00,WeatherDisplay:10.37,2013-11-16 04:26:00,
2013-11-15 23:31:00,47.6,2.1,30.23,WNW,292,0.5,3.0,15,0.00,CLR,SKC,0.00,WeatherDisplay:10.37,2013-11-16 04:31:00,
2013-11-15 23:36:00,47.6,2.1,30.23,NNW,337,0.3,3.5,15,0.00,CLR,SKC,0.00,WeatherDisplay:10.37,2013-11-16 04:36:00,
2013-11-15 23:41:00,47.6,2.1,30.23,NW,315,1.2,3.5,15,0.00,CLR,SKC,0.00,WeatherDisplay:10.37,2013-11-16 04:41:00,
2013-11-15 23:46:00,47.6,2.1,30.23,WNW,292,2.3,3.5,15,0.00,CLR,SKC,0.00,WeatherDisplay:10.37,2013-11-16 04:46:00,
2013-11-15 23:51:00,47.6,2.1,30.23,West,270,0.3,2.3,15,0.00,CLR,SKC,0.00,WeatherDisplay:10.37,2013-11-16 04:51:00,
2013-11-15 23:56:00,47.6,2.1,30.23,NW,315,1.2,4.6,15,0.00,CLR,SKC,0.00,WeatherDisplay:10.37,2013-11-16 04:56:00,